LRFT Weather Reports


time (UTC)temp
F
wind
direction
speed
knots
gust
knots
rain 1hr
in
rain 24hr
in
rain mn
in
humidity
%
barometer
mb
20260506094900 68 130 6.1 0.0 0.00 0.00 0.00 43 1016.0
20260506093359 68 130 6.1 0.0 0.00 0.00 0.00 43 1016.0
20260506091859 68 130 6.1 0.0 0.00 0.00 0.00 43 1016.0
20260506090359 68 130 6.1 0.0 0.00 0.00 0.00 43 1016.0
20260506084900 66 120 6.1 0.0 0.00 0.00 0.00 46 1016.0
20260506083359 66 120 6.1 0.0 0.00 0.00 0.00 46 1016.0
20260506081856 66 120 6.1 0.0 0.00 0.00 0.00 46 1016.0
20260506080359 66 120 6.1 0.0 0.00 0.00 0.00 46 1016.0
20260506073400 63 150 5.2 0.0 0.00 0.00 0.00 49 1016.0
20260506071859 63 150 5.2 0.0 0.00 0.00 0.00 49 1016.0
20260506070359 63 150 5.2 0.0 0.00 0.00 0.00 49 1016.0
20260506061900 59 150 6.1 0.0 0.00 0.00 0.00 55 1016.0
20260506060401 59 150 6.1 0.0 0.00 0.00 0.00 55 1016.0
20260506050413 50 160 5.2 0.0 0.00 0.00 0.00 71 1015.0
20260506044915 43 120 7.0 0.0 0.00 0.00 0.00 87 1015.0
20260506043403 43 120 7.0 0.0 0.00 0.00 0.00 87 1015.0
20260506041900 43 120 7.0 0.0 0.00 0.00 0.00 87 1015.0
20260506040359 43 120 7.0 0.0 0.00 0.00 0.00 87 1015.0
20260506034900 41 140 6.1 0.0 0.00 0.00 0.00 87 1015.0
20260506033359 41 140 6.1 0.0 0.00 0.00 0.00 87 1015.0
20260506031859 41 140 6.1 0.0 0.00 0.00 0.00 87 1015.0
20260506030359 41 140 6.1 0.0 0.00 0.00 0.00 87 1015.0
20260506024859 45 170 7.8 0.0 0.00 0.00 0.00 87 1016.0
20260506023359 45 170 7.8 0.0 0.00 0.00 0.00 87 1016.0
20260506021857 0 0.0 0.0 0.00 0.00 0.00
20260506020359 0 0.0 0.0 0.00 0.00 0.00
20260506014859 45 170 7.8 0.0 0.00 0.00 0.00 87 1016.0
20260506013359 45 170 7.8 0.0 0.00 0.00 0.00 87 1016.0
20260506011900 45 170 7.8 0.0 0.00 0.00 0.00 87 1016.0
20260506010359 45 170 7.8 0.0 0.00 0.00 0.00 87 1016.0
20260506004856 45 170 7.8 0.0 0.00 0.00 0.00 87 1016.0
20260506003523 0 0.0 0.0 0.00 0.00 0.00
20260506001900 46 160 7.8 0.0 0.00 0.00 0.00 87 1016.0
20260506000401 46 160 7.8 0.0 0.00 0.00 0.00 87 1016.0
20260505234900 0 0.0 0.0 0.00 0.00 0.00
20260505233359 0 0.0 0.0 0.00 0.00 0.00
20260505231859 0 0.0 0.0 0.00 0.00 0.00
20260505230400 0 0.0 0.0 0.00 0.00 0.00
20260505224900 48 150 7.0 0.0 0.00 0.00 0.00 82 1016.0
20260505223359 48 150 7.0 0.0 0.00 0.00 0.00 82 1016.0
20260505221857 48 150 7.0 0.0 0.00 0.00 0.00 82 1016.0
20260505220400 48 150 7.0 0.0 0.00 0.00 0.00 82 1016.0
20260505214900 48 150 7.0 0.0 0.00 0.00 0.00 82 1016.0
20260505213400 50 140 7.8 0.0 0.00 0.00 0.00 76 1016.0
20260505211859 50 140 7.8 0.0 0.00 0.00 0.00 76 1016.0
20260505210400 50 140 7.8 0.0 0.00 0.00 0.00 76 1016.0
20260505204901 50 140 7.8 0.0 0.00 0.00 0.00 76 1016.0
20260505203359 50 140 7.8 0.0 0.00 0.00 0.00 76 1016.0
20260505201930 50 140 7.8 0.0 0.00 0.00 0.00 76 1016.0
20260505200400 50 140 7.8 0.0 0.00 0.00 0.00 76 1016.0
20260505194859 52 140 11.3 0.0 0.00 0.00 0.00 72 1015.0
20260505193359 52 140 11.3 0.0 0.00 0.00 0.00 72 1015.0
20260505191859 52 140 11.3 0.0 0.00 0.00 0.00 72 1015.0
20260505190359 52 140 11.3 0.0 0.00 0.00 0.00 72 1015.0
20260505184900 55 130 9.6 0.0 0.00 0.00 0.00 59 1015.0
20260505183400 55 130 9.6 0.0 0.00 0.00 0.00 59 1015.0
20260505181857 55 130 9.6 0.0 0.00 0.00 0.00 59 1015.0
20260505180400 55 130 9.6 0.0 0.00 0.00 0.00 59 1015.0
20260505174854 63 130 12.2 0.0 0.00 0.00 0.00 52 1015.0
20260505173359 63 130 12.2 0.0 0.00 0.00 0.00 52 1015.0
20260505171859 63 130 12.2 0.0 0.00 0.00 0.00 52 1015.0
20260505170400 63 130 12.2 0.0 0.00 0.00 0.00 52 1015.0
20260505164859 66 120 13.9 0.0 0.00 0.00 0.00 46 1014.0
20260505163400 66 120 13.9 0.0 0.00 0.00 0.00 46 1014.0
20260505161900 66 120 13.9 0.0 0.00 0.00 0.00 46 1014.0
20260505160400 66 120 13.9 0.0 0.00 0.00 0.00 46 1014.0
20260505153400 70 130 12.2 0.0 0.00 0.00 0.00 43 1014.0
20260505151908 70 130 12.2 0.0 0.00 0.00 0.00 43 1014.0
20260505150400 70 130 12.2 0.0 0.00 0.00 0.00 43 1014.0
20260505140359 72 90 4.3 0.0 0.00 0.00 0.00 36 1014.0
20260505124900 72 100 7.0 0.0 0.00 0.00 0.00 38 1015.0
20260505123359 72 100 7.0 0.0 0.00 0.00 0.00 38 1015.0
20260505121859 72 100 7.0 0.0 0.00 0.00 0.00 38 1015.0
20260505120412 0 0.0 0.0 0.00 0.00 0.00
20260505114907 70 120 6.1 0.0 0.00 0.00 0.00 35 1016.0
20260505113430 70 120 6.1 0.0 0.00 0.00 0.00 35 1016.0
20260505111900 70 120 6.1 0.0 0.00 0.00 0.00 35 1016.0
20260505110400 70 120 6.1 0.0 0.00 0.00 0.00 35 1016.0
20260505101900 70 200 6.1 0.0 0.00 0.00 0.00 38 1016.0
20260505100400 70 200 6.1 0.0 0.00 0.00 0.00 38 1016.0